W4SNA-4 Weather Reports


time (UTC)temp
C
wind
direction
speed
KPH
gust
KPH
rain 1hr
cm
rain 24hr
cm
rain mn
cm
humidity
%
barometer
mb
20260506185731 18 0 0.0 1.6 0.00 0.13 0.13 91 1007.5
20260506185231 18 0 0.0 1.6 0.00 0.13 0.13 92 1007.5
20260506184731 18 0 0.0 0.0 0.00 0.13 0.13 91 1007.5
20260506184231 18 0 0.0 0.0 0.03 0.13 0.13 92 1007.5
20260506183730 18 0 0.0 0.0 0.03 0.13 0.13 92 1007.5
20260506183239 18 0 0.0 1.6 0.03 0.13 0.13 91 1007.5
20260506182731 18 0 0.0 1.6 0.03 0.13 0.13 91 1007.5
20260506182230 18 0 0.0 0.0 0.03 0.13 0.13 91 1007.3
20260506181736 17 0 0.0 0.0 0.05 0.13 0.13 92 1007.3
20260506181009 17 0 0.0 0.0 0.08 0.13 0.13 92 1007.3
20260506180509 17 0 0.0 0.0 0.10 0.13 0.13 92 1007.6
20260506180008 17 0 0.0 0.0 0.13 0.13 0.13 93 1007.6
20260506175508 17 0 0.0 0.0 0.13 0.13 0.13 93 1007.6
20260506175009 17 0 0.0 0.0 0.13 0.13 0.13 92 1009.0
20260506174515 17 0 0.0 0.0 0.10 0.10 0.10 91 1009.0
20260506174015 17 0 0.0 0.0 0.10 0.10 0.10 91 1009.0
20260506173510 17 0 0.0 0.0 0.10 0.10 0.10 91 1009.0
20260506173013 17 0 0.0 0.0 0.10 0.10 0.10 90 1009.0
20260506172511 17 0 0.0 1.6 0.10 0.10 0.10 88 1009.0
20260506172012 18 0 0.0 1.6 0.08 0.08 0.08 86 1009.4
20260506171511 18 0 0.0 0.0 0.08 0.08 0.08 85 1009.4
20260506171012 18 0 0.0 0.0 0.05 0.05 0.05 83 1009.4
20260506170515 19 0 0.0 0.0 0.03 0.03 0.03 80 1009.5
20260506170010 20 0 0.0 0.0 0.00 0.00 0.00 78 1009.5
20260506165510 20 0 0.0 0.0 0.00 0.00 0.00 76 1009.5
20260506165011 20 0 0.0 0.0 0.00 0.00 0.00 76 1009.2
20260506164510 20 0 0.0 0.0 0.00 0.00 0.00 75 1009.2
20260506164010 20 0 0.0 0.0 0.00 0.00 0.00 74 1009.2
20260506163516 20 0 0.0 0.0 0.00 0.00 0.00 74 1009.1
20260506163014 20 0 0.0 0.0 0.00 0.00 0.00 74 1009.1
20260506162523 20 0 0.0 0.0 0.00 0.00 0.00 73 1009.1
20260506162010 20 0 0.0 0.0 0.00 0.00 0.00 74 1008.9
20260506161511 20 0 0.0 0.0 0.00 0.00 0.00 73 1008.9
20260506161010 20 0 0.0 0.0 0.00 0.00 0.00 72 1008.9
20260506160513 20 0 0.0 0.0 0.00 0.00 0.00 72 1009.0
20260506160012 20 0 0.0 0.0 0.00 0.00 0.00 71 1009.0
20260506155523 20 0 0.0 0.0 0.00 0.00 0.00 72 1009.0
20260506155010 20 0 0.0 0.0 0.00 0.00 0.00 73 1008.5
20260506154511 20 0 0.0 0.0 0.00 0.00 0.00 75 1008.5
20260506154008 20 0 0.0 0.0 0.00 0.00 0.00 77 1008.5
20260506153508 19 0 0.0 0.0 0.00 0.00 0.00 75 1008.0
20260506152810 19 0 0.0 0.0 0.00 0.00 0.00 76 1008.0
20260506152309 19 0 0.0 0.0 0.00 0.00 0.00 77 1008.0
20260506151810 18 0 0.0 0.0 0.00 0.00 0.00 77 1008.0
20260506151310 18 0 0.0 0.0 0.00 0.00 0.00 78 1008.0
20260506150810 18 0 0.0 0.0 0.00 0.00 0.00 78 1008.2
20260506150316 18 0 0.0 0.0 0.00 0.00 0.00 78 1008.2
20260506145809 18 0 0.0 0.0 0.00 0.00 0.00 79 1008.2
20260506145312 18 0 0.0 1.6 0.00 0.00 0.00 79 1008.4
20260506144814 18 0 0.0 1.6 0.00 0.00 0.00 80 1008.4
20260506144309 18 0 0.0 0.0 0.00 0.00 0.00 80 1008.4
20260506143510 17 0 0.0 0.0 0.00 0.00 0.00 79 1008.5
20260506143009 17 0 0.0 0.0 0.00 0.00 0.00 80 1008.5
20260506142509 17 0 0.0 0.0 0.00 0.00 0.00 79 1008.5
20260506142009 17 0 0.0 0.0 0.00 0.00 0.00 80 1008.5
20260506141512 17 0 0.0 0.0 0.00 0.00 0.00 79 1008.5
20260506141009 17 0 0.0 0.0 0.00 0.00 0.00 79 1008.5
20260506140516 17 0 0.0 0.0 0.00 0.00 0.00 80 1008.4
20260506140009 17 0 0.0 0.0 0.00 0.00 0.00 80 1008.4
20260506135509 17 0 0.0 0.0 0.00 0.00 0.00 80 1008.4
20260506135009 17 0 0.0 0.0 0.00 0.00 0.00 80 1008.0
20260506134509 17 0 0.0 0.0 0.00 0.00 0.00 80 1008.0
20260506134016 17 0 0.0 0.0 0.00 0.00 0.00 80 1008.0
20260506133509 17 0 0.0 1.6 0.00 0.00 0.00 80 1008.3
20260506133011 17 0 0.0 1.6 0.00 0.00 0.00 80 1008.3
20260506132009 17 0 0.0 1.6 0.00 0.00 0.00 80 1008.4
20260506131509 17 0 0.0 1.6 0.00 0.00 0.00 79 1008.4
20260506131009 17 0 0.0 1.6 0.00 0.00 0.00 80 1008.4
20260506130512 17 0 0.0 0.0 0.00 0.00 0.00 80 1007.8
20260506130009 17 0 0.0 0.0 0.00 0.00 0.00 79 1007.8
20260506125509 17 0 0.0 0.0 0.00 0.00 0.00 79 1007.8
20260506125009 17 0 0.0 0.0 0.00 0.00 0.00 79 1008.4
20260506124512 16 0 0.0 0.0 0.00 0.00 0.00 80 1008.4
20260506124019 16 0 0.0 0.0 0.00 0.00 0.00 80 1008.4
20260506123509 16 0 0.0 0.0 0.00 0.00 0.00 80 1008.7
20260506123009 16 0 0.0 0.0 0.00 0.00 0.00 80 1008.7
20260506122336 16 0 0.0 0.0 0.00 0.00 0.00 80 1008.9
20260506121831 16 0 0.0 3.2 0.00 0.00 0.00 80 1008.9
20260506121331 16 0 0.0 3.2 0.00 0.00 0.00 79 1008.9
20260506120829 16 0 0.0 0.0 0.00 0.00 0.00 79 1008.7
20260506120326 16 0 0.0 0.0 0.00 0.00 0.00 79 1008.7
20260506115827 16 0 0.0 0.0 0.00 0.00 0.00 79 1008.7
20260506115327 16 0 0.0 0.0 0.00 0.00 0.00 79 1008.5
20260506114826 16 0 0.0 0.0 0.00 0.00 0.00 79 1008.5
20260506113856 16 0 0.0 0.0 0.00 0.00 0.00 79 1008.6
20260506113356 16 0 0.0 0.0 0.00 0.00 0.00 79 1008.6
20260506112856 16 0 0.0 0.0 0.00 0.00 0.00 79 1008.6
20260506112356 16 0 0.0 0.0 0.00 0.00 0.00 79 1008.3
20260506111856 16 0 0.0 0.0 0.00 0.00 0.00 79 1008.3
20260506111356 16 0 0.0 0.0 0.00 0.00 0.00 79 1008.3
20260506110856 16 0 0.0 0.0 0.00 0.00 0.00 79 1008.0
20260506110515 16 0 0.0 1.6 0.00 0.00 0.00 79 1008.0
20260506110356 16 0 0.0 1.6 0.00 0.00 0.00 79 1008.0
20260506110020 16 0 0.0 1.6 0.00 0.00 0.00 79 1008.0
20260506105856 16 0 0.0 1.6 0.00 0.00 0.00 79 1008.0
20260506105509 16 0 0.0 0.0 0.00 0.00 0.00 79 1007.6
20260506105356 16 0 0.0 0.0 0.00 0.00 0.00 79 1007.6
20260506105112 16 0 0.0 0.0 0.00 0.00 0.00 79 1007.6
20260506104856 16 0 0.0 0.0 0.00 0.00 0.00 79 1007.6
20260506104356 16 0 0.0 0.0 0.00 0.00 0.00 79 1007.6
20260506104035 16 0 0.0 0.0 0.00 0.00 0.00 79 1007.4
20260506103856 16 0 0.0 0.0 0.00 0.00 0.00 79 1007.4
20260506103442 16 0 0.0 0.0 0.00 0.00 0.00 79 1007.4
20260506103358 16 0 0.0 0.0 0.00 0.00 0.00 79 1007.4
20260506102934 16 0 0.0 0.0 0.00 0.00 0.00 79 1007.4
20260506102858 16 0 0.0 0.0 0.00 0.00 0.00 79 1007.4
20260506102507 16 0 0.0 0.0 0.00 0.00 0.00 78 1007.5
20260506102356 16 0 0.0 0.0 0.00 0.00 0.00 78 1007.5
20260506101856 16 0 0.0 0.0 0.00 0.00 0.00 79 1007.5
20260506101356 16 0 0.0 0.0 0.00 0.00 0.00 79 1007.5
20260506100856 16 0 0.0 0.0 0.00 0.00 0.00 78 1007.6
20260506100356 16 0 0.0 0.0 0.00 0.00 0.00 78 1007.6
20260506095856 16 0 0.0 0.0 0.00 0.00 0.00 78 1007.6
20260506095355 16 0 0.0 0.0 0.00 0.00 0.00 78 1007.6
20260506094856 16 0 0.0 0.0 0.00 0.00 0.00 77 1007.6
20260506094356 16 0 0.0 0.0 0.00 0.00 0.00 77 1007.6
20260506093856 16 0 0.0 0.0 0.00 0.00 0.00 77 1007.6
20260506093402 16 0 0.0 0.0 0.00 0.00 0.00 77 1007.6
20260506092855 16 0 0.0 1.6 0.00 0.00 0.00 77 1007.6
20260506092356 16 0 0.0 1.6 0.00 0.00 0.00 77 1007.8
20260506091858 16 0 0.0 0.0 0.00 0.00 0.00 77 1007.8
20260506091356 16 0 0.0 1.6 0.00 0.00 0.00 77 1007.8
20260506090857 16 0 0.0 1.6 0.00 0.00 0.00 76 1008.0
20260506090356 16 0 0.0 0.0 0.00 0.00 0.00 76 1008.0
20260506085856 16 0 0.0 0.0 0.00 0.00 0.00 76 1008.0
20260506085356 16 0 0.0 0.0 0.00 0.00 0.00 76 1008.3
20260506084855 16 0 0.0 0.0 0.00 0.00 0.00 76 1008.3
20260506084356 16 0 0.0 0.0 0.00 0.00 0.00 76 1008.3
20260506083856 16 0 0.0 1.6 0.00 0.00 0.00 75 1008.5
20260506083356 16 0 0.0 1.6 0.00 0.00 0.00 75 1008.5
20260506082856 16 0 0.0 0.0 0.00 0.00 0.00 75 1008.5
20260506082355 16 0 0.0 0.0 0.00 0.00 0.00 75 1008.5
20260506081856 17 0 0.0 1.6 0.00 0.00 0.00 75 1008.5
20260506081356 17 0 0.0 1.6 0.00 0.00 0.00 75 1008.5
20260506080855 17 0 0.0 1.6 0.00 0.00 0.00 75 1008.0
20260506080356 17 0 0.0 1.6 0.00 0.00 0.00 75 1008.0
20260506073503 17 0 0.0 1.6 0.00 0.00 0.00 75 1008.5
20260506073001 17 0 0.0 0.0 0.00 0.00 0.00 75 1008.5
20260506072500 17 0 0.0 1.6 0.00 0.00 0.00 75 1008.4
20260506072001 17 0 0.0 1.6 0.00 0.00 0.00 75 1008.4
20260506071500 17 0 0.0 0.0 0.00 0.00 0.00 75 1008.4
20260506071001 17 0 0.0 0.0 0.00 0.00 0.00 75 1007.8
20260506070503 17 0 0.0 0.0 0.00 0.00 0.00 75 1007.8
20260506062225 17 0 0.0 0.0 0.00 0.00 0.00 73 1008.6
20260506061329 17 0 0.0 0.0 0.00 0.00 0.00 72 1008.6
20260506060829 17 0 0.0 0.0 0.00 0.00 0.00 72 1008.9
20260506060329 17 0 0.0 0.0 0.00 0.00 0.00 72 1008.9
20260506051329 18 0 0.0 6.4 0.00 0.00 0.00 69 1008.8
20260506050832 18 0 0.0 6.4 0.00 0.00 0.00 69 1008.7
20260506050330 18 0 0.0 0.0 0.00 0.00 0.00 69 1008.7
20260506044504 18 0 0.0 1.6 0.00 0.00 0.00 67 1009.1
20260506044003 18 0 0.0 0.0 0.00 0.00 0.00 67 1009.1
20260506043505 18 0 0.0 0.0 0.00 0.00 0.00 67 1009.1
20260506043003 18 0 0.0 0.0 0.00 0.00 0.00 66 1009.1
20260506042502 18 0 0.0 6.4 0.00 0.00 0.00 66 1008.6
20260506042003 18 0 0.0 6.4 0.00 0.00 0.00 65 1008.6
20260506041503 18 0 0.0 3.2 0.00 0.00 0.00 65 1008.6
20260506041003 18 0 0.0 3.2 0.00 0.00 0.00 64 1008.8
20260506040503 18 0 0.0 1.6 0.00 0.00 0.00 64 1008.8
20260506040003 18 0 0.0 1.6 0.00 0.00 0.00 63 1008.8
20260506035503 18 0 0.0 3.2 0.00 0.00 0.00 62 1008.7
20260506035004 18 0 0.0 3.2 0.00 0.00 0.00 61 1008.7
20260506034503 18 0 0.0 1.6 0.00 0.00 0.00 60 1008.7
20260506034003 19 0 0.0 1.6 0.00 0.00 0.00 59 1008.6
20260506033503 19 0 0.0 1.6 0.00 0.00 0.00 59 1008.6
20260506033003 19 0 0.0 3.2 0.00 0.00 0.00 58 1008.6
20260506032503 19 0 0.0 3.2 0.00 0.00 0.00 58 1008.7
20260506032003 19 0 0.0 0.0 0.00 0.00 0.00 58 1008.7
20260506031503 19 0 0.0 0.0 0.00 0.00 0.00 57 1008.7
20260506031003 19 0 0.0 1.6 0.00 0.00 0.00 56 1008.7
20260506030504 19 0 0.0 1.6 0.00 0.00 0.00 56 1008.7
20260506030003 19 0 0.0 0.0 0.00 0.00 0.00 56 1008.7
20260506025504 19 0 0.0 0.0 0.00 0.00 0.00 55 1008.9
20260506025004 19 0 0.0 0.0 0.00 0.00 0.00 55 1008.9
20260506024503 20 0 0.0 0.0 0.00 0.00 0.00 54 1008.9
20260506024003 20 0 0.0 0.0 0.00 0.00 0.00 53 1009.2
20260506023503 20 0 0.0 0.0 0.00 0.00 0.00 52 1009.2
20260506023003 20 0 0.0 0.0 0.00 0.00 0.00 52 1009.2
20260506022503 20 0 0.0 0.0 0.00 0.00 0.00 51 1009.2
20260506022003 20 0 0.0 0.0 0.00 0.00 0.00 51 1009.2
20260506021503 20 0 0.0 0.0 0.00 0.00 0.00 51 1009.2
20260506021003 21 0 0.0 0.0 0.00 0.00 0.00 50 1009.2
20260506020346 21 0 0.0 0.0 0.00 0.00 0.00 50 1009.2
20260506015918 21 0 0.0 0.0 0.00 0.00 0.00 50 1009.2
20260506015846 21 0 0.0 0.0 0.00 0.00 0.00 50 1009.2
20260506015319 21 0 0.0 0.0 0.00 0.00 0.00 50 1009.1
20260506014820 21 0 0.0 0.0 0.00 0.00 0.00 50 1009.1
20260506014318 21 0 0.0 0.0 0.00 0.00 0.00 50 1009.1
20260506013817 21 0 0.0 0.0 0.00 0.00 0.00 50 1009.0
20260506013318 21 0 0.0 0.0 0.00 0.00 0.00 49 1009.0
20260506012827 21 0 0.0 0.0 0.00 0.00 0.00 49 1009.0
20260506012318 21 0 0.0 1.6 0.00 0.00 0.00 49 1009.1
20260506011818 21 0 0.0 1.6 0.00 0.00 0.00 49 1009.1
20260506011319 21 0 0.0 0.0 0.00 0.00 0.00 49 1009.1
20260506010818 21 0 0.0 0.0 0.00 0.00 0.00 48 1008.7
20260506010317 21 0 0.0 0.0 0.00 0.00 0.00 48 1008.7
20260506005829 21 0 0.0 0.0 0.00 0.00 0.00 48 1008.7
20260506005317 21 0 0.0 0.0 0.00 0.00 0.00 48 1008.6
20260506004818 21 0 0.0 0.0 0.00 0.00 0.00 48 1008.6
20260506004318 21 0 0.0 0.0 0.00 0.00 0.00 48 1008.6
20260506003818 22 0 0.0 0.0 0.00 0.00 0.00 48 1008.6
20260506003318 22 0 0.0 0.0 0.00 0.00 0.00 48 1008.6
20260506002828 22 0 0.0 0.0 0.00 0.00 0.00 47 1008.6
20260506002318 22 0 0.0 1.6 0.00 0.00 0.00 47 1008.5
20260506001817 22 0 0.0 1.6 0.00 0.00 0.00 46 1008.5
20260506001318 22 0 0.0 0.0 0.00 0.00 0.00 46 1008.5
20260506000817 22 0 0.0 0.0 0.00 0.00 0.00 46 1008.5
20260506000318 22 0 0.0 0.0 0.00 0.00 0.00 46 1008.5
20260505235828 22 0 0.0 0.0 0.00 0.00 0.00 45 1008.5
20260505235317 22 0 0.0 0.0 0.00 0.00 0.00 45 1008.4
20260505234509 23 0 0.0 1.6 0.00 0.00 0.00 44 1008.4
20260505234009 23 0 0.0 0.0 0.00 0.00 0.00 44 1008.4
20260505233509 23 0 0.0 0.0 0.00 0.00 0.00 44 1008.2
20260505233009 23 0 0.0 0.0 0.00 0.00 0.00 45 1008.2
20260505232510 23 0 0.0 0.0 0.00 0.00 0.00 45 1008.2
20260505232009 23 0 0.0 1.6 0.00 0.00 0.00 45 1008.1
20260505231509 23 0 0.0 1.6 0.00 0.00 0.00 46 1008.1
20260505231009 23 0 0.0 0.0 0.00 0.00 0.00 46 1008.1
20260505230509 23 0 0.0 0.0 0.00 0.00 0.00 46 1008.1
20260505230009 23 0 0.0 0.0 0.00 0.00 0.00 46 1008.1
20260505225509 23 0 0.0 0.0 0.00 0.00 0.00 45 1008.1
20260505225009 23 0 0.0 0.0 0.00 0.00 0.00 44 1008.1
20260505224509 23 0 0.0 0.0 0.00 0.00 0.00 44 1008.1
20260505224009 23 0 0.0 0.0 0.00 0.00 0.00 45 1008.1
20260505223509 23 0 0.0 0.0 0.00 0.00 0.00 43 1008.2
20260505223009 23 0 0.0 0.0 0.00 0.00 0.00 43 1008.2
20260505222509 23 0 0.0 0.0 0.00 0.00 0.00 43 1008.2
20260505221553 24 0 0.0 0.0 0.00 0.00 0.00 42 1008.5
20260505221036 24 0 0.0 4.8 0.00 0.00 0.00 41 1008.5
20260505220536 24 0 0.0 1.6 0.00 0.00 0.00 42 1008.4
20260505220036 24 0 0.0 1.6 0.00 0.00 0.00 42 1008.4
20260505215039 25 0 0.0 1.6 0.00 0.00 0.00 41 1008.6
20260505214540 25 0 0.0 3.2 0.00 0.00 0.00 42 1008.6
20260505214036 25 0 0.0 3.2 0.00 0.00 0.00 42 1008.6
20260505213536 24 0 0.0 3.2 0.00 0.00 0.00 43 1008.7
20260505213036 24 0 0.0 0.0 0.00 0.00 0.00 43 1008.7
20260505212536 24 0 0.0 1.6 0.00 0.00 0.00 41 1008.7
20260505212036 25 0 0.0 1.6 0.00 0.00 0.00 41 1008.6
20260505211536 25 0 0.0 0.0 0.00 0.00 0.00 40 1008.6
20260505211036 25 0 0.0 0.0 0.00 0.00 0.00 41 1008.6
20260505210536 25 0 0.0 3.2 0.00 0.00 0.00 40 1008.6
20260505210036 25 0 0.0 3.2 0.00 0.00 0.00 40 1008.6
20260505205536 25 0 0.0 3.2 0.00 0.00 0.00 41 1008.6
20260505205036 25 0 0.0 4.8 0.00 0.00 0.00 43 1008.7
20260505204545 25 0 0.0 4.8 0.00 0.00 0.00 40 1008.7
20260505204042 25 0 0.0 1.6 0.00 0.00 0.00 40 1008.7
20260505203538 25 0 0.0 1.6 0.00 0.00 0.00 40 1009.0
20260505203036 25 0 0.0 11.3 0.00 0.00 0.00 39 1009.0
20260505202536 25 0 0.0 11.3 0.00 0.00 0.00 40 1009.0
20260505202036 25 0 0.0 1.6 0.00 0.00 0.00 41 1009.1
20260505201536 25 0 0.0 1.6 0.00 0.00 0.00 40 1009.1
20260505201036 25 0 0.0 4.8 0.00 0.00 0.00 40 1009.1
20260505200540 25 0 0.0 4.8 0.00 0.00 0.00 40 1009.2
20260505200036 25 0 0.0 8.0 0.00 0.00 0.00 41 1009.2
20260505195536 25 0 0.0 8.0 0.00 0.00 0.00 41 1009.2
20260505195036 25 0 0.0 0.0 0.00 0.00 0.00 39 1009.3
20260505194536 25 0 0.0 0.0 0.00 0.00 0.00 41 1009.3
20260505194036 25 0 0.0 0.0 0.00 0.00 0.00 43 1009.3
20260505193542 25 0 0.0 0.0 0.00 0.00 0.00 41 1009.7
20260505193036 25 0 0.0 0.0 0.00 0.00 0.00 41 1009.7
20260505192536 25 0 0.0 0.0 0.00 0.00 0.00 41 1009.7
20260505191723 25 0 0.0 0.0 0.00 0.00 0.00 40 1009.9
20260505191221 25 0 0.0 0.0 0.00 0.00 0.00 40 1009.9
20260505190717 25 0 0.0 0.0 0.00 0.00 0.00 39 1010.0
20260505190221 25 0 0.0 0.0 0.00 0.00 0.00 40 1010.0